Location: Rathdrum
(47.8130°N, 116.8960°W)
Time: 05:29:55
(UTC-08:00)

Amateur Radio Satellites - All Passes

Search period start: 22 December 2014 04:59
Search period end: 23 December 2014 04:59
Location: Rathdrum, 47.8130°N, 116.8960°W

Satellite Date Start Highest point End Downlink Frequencies (MHz)
Time Altitude Azimuth
CUBESAT XI-V 22 Dec 05:21:25 05:26:02 63° 73° (ENE) 05:30:38 437.345
CUTE-I 22 Dec 05:29:09 05:33:49 30° 95° (E) 05:38:28 437.470
AO-7 22 Dec 05:29:53 05:37:52 51° 300° (WNW) 05:45:48 29.400- 29.500
MOZHAYETS 4 22 Dec 05:35:10 05:36:08 11° 275° (W) 05:37:07
PRISM 22 Dec 05:37:20 05:41:21 41° 261° (W) 05:45:23 437.425
JAS-2 22 Dec 05:51:48 05:57:16 47° 293° (WNW) 06:02:17 435.910
GONETS M04 22 Dec 05:53:46 06:02:34 69° 283° (WNW) 06:11:24
VERMONT LUNAR 22 Dec 05:55:38 05:58:08 18° 196° (SSW) 06:00:38 437.305
SO-50 22 Dec 06:07:15 06:10:54 21° 247° (WSW) 06:14:33 436.795
STRAND 1 22 Dec 06:13:12 06:18:10 51° 260° (W) 06:23:10 437.568
PHONESAT 2.4 22 Dec 06:17:50 06:20:31 20° 195° (SSW) 06:23:11 2401.200-2431.200
Cubesat XI-IV 22 Dec 06:36:01 06:41:21 77° 287° (WNW) 06:46:39 437.490
CUBESAT XI-V 22 Dec 07:00:55 07:03:54 17° 271° (W) 07:06:53 437.345
CUTE-I 22 Dec 07:09:01 07:14:01 43° 293° (WNW) 07:19:00 437.470
HO-68 22 Dec 07:09:05 07:12:41 14° 85° (E) 07:16:16 435.675
AO-7 22 Dec 07:24:17 07:28:45 16° 323° (NW) 07:33:14 29.400- 29.500
MaSat-1 22 Dec 07:43:55 07:45:33 18° 112° (ESE) 07:47:09 437.345
AAUSAT CUBESAT 2 22 Dec 07:55:08 07:57:15 13° 88° (E) 07:59:21 437.432
GONETS M04 22 Dec 07:55:44 08:01:21 18° 308° (NW) 08:06:59
CUSAT 1 22 Dec 08:06:53 08:09:53 19° 81° (E) 08:13:30 437.405
BRITE-PL 22 Dec 08:07:39 08:11:57 34° 97° (E) 08:16:32 437.365/2234.400
YUBILEINY 22 Dec 08:09:10 08:14:12 16° 51° (NE) 08:19:12 435.215
UNISAT 6 22 Dec 08:13:54 08:16:48 17° 59° (ENE) 08:19:44 437.425
CANX-2 22 Dec 08:14:02 08:18:00 34° 96° (E) 08:21:56 2200.000
POLYITAN 1 22 Dec 08:16:54 08:18:25 12° 57° (ENE) 08:19:56 437.675
NANOSAT C BR1 22 Dec 08:17:28 08:18:57 12° 57° (ENE) 08:20:26 145.865
Cubesat XI-IV 22 Dec 08:17:56 08:20:35 14° 307° (NW) 08:23:15 437.490
GOMX 1 22 Dec 08:24:49 08:29:14 36° 97° (E) 08:33:54 467.674
CUBEBUG 2 22 Dec 08:26:19 08:27:39 11° 86° (E) 08:28:59 437.445
COMPASS 1 22 Dec 08:30:30 08:34:25 34° 96° (E) 08:38:17 437.405
QB50P1 22 Dec 08:31:00 08:33:32 16° 60° (ENE) 08:36:04 145.935-145.965
DELFI C3 22 Dec 08:36:36 08:39:04 15° 90° (E) 08:41:31 145.870
SEEDS 22 Dec 08:38:29 08:42:40 48° 99° (E) 08:46:49 437.485
DOVE 4 22 Dec 08:41:30 08:46:00 39° 97° (E) 08:50:44 437.250
CUTE 1.7 + AOD 2 22 Dec 08:44:23 08:48:42 64° 101° (E) 08:52:58 437.475
ANTELSAT 22 Dec 08:44:44 08:48:39 32° 66° (ENE) 08:52:40 437.575/2403.000
CINEMA 3 22 Dec 08:53:11 08:57:27 32° 95° (E) 09:01:50 145.822/145.860
FUNcube-1 22 Dec 08:53:50 08:56:26 15° 89° (E) 08:59:03 145.935
O/OREOS (USA 219) 22 Dec 08:54:01 08:58:16 38° 57° (ENE) 09:02:30 437.305
HO-68 22 Dec 08:54:29 09:01:40 73° 105° (ESE) 09:08:47 435.675
POPSAT HIP 1 22 Dec 08:58:41 09:02:15 28° 66° (ENE) 09:05:51 437.405
UWE-3 22 Dec 08:58:49 09:02:14 20° 91° (E) 09:05:39 435.000/436.395/437.385
DANDE 22 Dec 09:06:30 09:10:15 57° 95° (E) 09:15:22 436.750
DX 1 22 Dec 09:08:26 09:12:13 28° 96° (E) 09:15:59 434.975-435.025
HUMSAT D 22 Dec 09:14:11 09:16:24 14° 89° (E) 09:18:36 437.325/437.525
BUGSAT 1 22 Dec 09:15:19 09:18:56 32° 68° (ENE) 09:22:33 437.445
MaSat-1 22 Dec 09:17:27 09:18:41 14° 310° (NW) 09:19:56 437.345
TIGRISAT 22 Dec 09:18:29 09:22:50 64° 73° (ENE) 09:27:19 435.000
AISAT 22 Dec 09:20:24 09:22:54 15° 90° (E) 09:25:23 437.250
DUCHIFAT 1 22 Dec 09:25:06 09:29:09 49° 71° (ENE) 09:33:14 145.980
Oscar 11 22 Dec 09:27:16 09:31:36 60° 101° (E) 09:35:55 145.826/435.025
AAUSAT CUBESAT 2 22 Dec 09:29:09 09:33:23 67° 286° (WNW) 09:37:34 437.432
UKube-1 22 Dec 09:37:06 09:41:22 53° 101° (E) 09:45:36 .
QB50P2 22 Dec 09:39:56 09:44:08 73° 74° (ENE) 09:48:23 145.880/145.840
BRITE-PL 22 Dec 09:46:16 09:50:27 33° 292° (WNW) 09:54:55 437.365/2234.400
CUSAT 1 22 Dec 09:48:17 09:52:15 47° 290° (WNW) 09:57:36 437.405
UNISAT 6 22 Dec 09:48:43 09:53:05 64° 259° (WSW) 09:57:37 437.425
POLYITAN 1 22 Dec 09:49:28 09:53:41 90° 125° (SE) 09:57:57 437.675
NANOSAT C BR1 22 Dec 09:49:57 09:54:09 90° 60° (ENE) 09:58:24 145.865
CANX-2 22 Dec 09:50:10 09:53:50 27° 294° (WNW) 09:57:28 2200.000
CUBEBUG 2 22 Dec 10:00:20 10:05:00 86° 104° (ESE) 10:09:45 437.445
ZACube-1 22 Dec 10:02:32 10:07:04 68° 102° (ESE) 10:11:39 437.345
GOMX 1 22 Dec 10:03:07 10:07:18 32° 293° (WNW) 10:11:43 467.674
YUBILEINY 22 Dec 10:04:28 10:13:07 64° 76° (ENE) 10:21:44 435.215
QB50P1 22 Dec 10:04:47 10:08:58 64° 258° (WSW) 10:13:10 145.935-145.965
COMPASS 1 22 Dec 10:06:26 10:10:01 27° 294° (WNW) 10:13:35 437.405
DELFI C3 22 Dec 10:10:38 10:14:42 56° 288° (WNW) 10:18:43 145.870
50 SAT 22 Dec 10:10:56 10:14:51 39° 98° (E) 10:18:46 437.505
VELOX 1 22 Dec 10:11:16 10:15:31 44° 99° (E) 10:19:45 145.980
SEEDS 22 Dec 10:15:02 10:18:11 20° 297° (WNW) 10:21:19 437.485
DOVE 4 22 Dec 10:19:34 10:23:40 30° 294° (WNW) 10:27:57 437.250
ESTCUBE 1 22 Dec 10:21:13 10:24:57 25° 94° (E) 10:28:40 437.505/2401.250
CUTE 1.7 + AOD 2 22 Dec 10:21:29 10:24:09 16° 299° (WNW) 10:26:48 437.475
ANTELSAT 22 Dec 10:21:30 10:25:26 31° 265° (W) 10:29:28 437.575/2403.000
FUNcube-1 22 Dec 10:28:44 10:33:14 69° 286° (WNW) 10:37:48 145.935
CINEMA 3 22 Dec 10:30:22 10:34:39 35° 292° (WNW) 10:39:05 145.822/145.860
O/OREOS (USA 219) 22 Dec 10:33:43 10:37:31 27° 256° (WSW) 10:41:20 437.305
POPSAT HIP 1 22 Dec 10:34:19 10:38:05 32° 264° (W) 10:41:54 437.405
UWE-3 22 Dec 10:34:35 10:39:03 52° 289° (WNW) 10:43:34 435.000/436.395/437.385
HO-68 22 Dec 10:42:56 10:48:48 29° 305° (NW) 10:54:39 435.675
DX 1 22 Dec 10:44:35 10:48:29 33° 294° (WNW) 10:52:22 434.975-435.025
HUMSAT D 22 Dec 10:48:20 10:52:40 69° 286° (WNW) 10:56:59 437.325/437.525
RS-15 22 Dec 10:49:08 10:59:23 49° 113° (ESE) 11:09:40 29.354- 29.394
BUGSAT 1 22 Dec 10:51:04 10:54:28 25° 265° (W) 10:57:53 437.445
DANDE 22 Dec 10:51:40 10:54:35 17° 305° (NW) 10:58:04 436.750
CUBEBUG 1 22 Dec 10:54:18 10:58:31 49° 100° (E) 11:02:43 437.445
AISAT 22 Dec 10:55:34 10:59:59 67° 287° (WNW) 11:04:23 437.250
TIGRISAT 22 Dec 10:57:29 11:00:04 15° 271° (W) 11:02:41 435.000
DUCHIFAT 1 22 Dec 11:02:27 11:05:18 18° 269° (W) 11:08:11 145.980
Oscar 11 22 Dec 11:04:28 11:07:21 17° 299° (WNW) 11:10:13 145.826/435.025
Oscar 19 22 Dec 11:11:23 11:15:28 24° 61° (ENE) 11:19:34 437.125/150
UKube-1 22 Dec 11:14:06 11:17:10 19° 299° (WNW) 11:20:13 .
QB50P2 22 Dec 11:18:48 11:20:34 12° 272° (W) 11:22:22 145.880/145.840
ITAMSAT 1 22 Dec 11:32:50 11:35:57 16° 56° (NE) 11:39:04 435.822/435.867
BEESAT 2 22 Dec 11:32:50 11:34:17 12° 109° (ESE) 11:35:44 435.950
CUBEBUG 2 22 Dec 11:38:38 11:41:05 14° 302° (WNW) 11:43:34 437.445
ZACube-1 22 Dec 11:40:05 11:42:58 17° 300° (WNW) 11:45:52 437.345
Gurwin Techsat 1B 22 Dec 11:40:45 11:43:00 13° 52° (NE) 11:45:16 435.225
TISAT 1 22 Dec 11:44:19 11:48:22 43° 99° (E) 11:52:24 437.305
50 SAT 22 Dec 11:46:36 11:49:52 23° 296° (WNW) 11:53:08 437.505
VELOX 1 22 Dec 11:48:23 11:51:51 23° 297° (WNW) 11:55:19 145.980
SPROUT 22 Dec 11:54:12 11:58:25 52° 100° (E) 12:02:37 437.525
ESTCUBE 1 22 Dec 11:57:46 12:01:58 39° 292° (WNW) 12:06:07 437.505/2401.250
YUBILEINY 22 Dec 12:01:58 12:09:22 33° 278° (W) 12:16:46 435.215
FUNcube-1 22 Dec 12:08:10 12:08:46 10° 305° (NW) 12:09:22 145.935
BEESAT 22 Dec 12:15:00 12:17:59 16° 90° (E) 12:20:56 436.000
ISS 22 Dec 12:20:30 12:22:55 19° 138° (SE) 12:25:19 145.825
BEESAT 3 22 Dec 12:26:12 12:30:04 41° 120° (ESE) 12:34:00 437.485
CUBEBUG 1 22 Dec 12:31:24 12:34:35 20° 298° (WNW) 12:37:45 437.445
AIST 2 22 Dec 12:45:14 12:48:55 29° 116° (ESE) 12:52:39 435.215
Oscar 19 22 Dec 12:49:25 12:54:28 55° 260° (W) 12:59:34 437.125/150
AO-7 22 Dec 12:50:00 12:56:08 24° 45° (NE) 13:02:17 29.400- 29.500
PCSat 22 Dec 12:53:37 12:58:45 46° 115° (ESE) 13:03:55 145.827
RS-15 22 Dec 13:00:45 13:11:31 61° 318° (NW) 13:22:30 29.354- 29.394
BEESAT 2 22 Dec 13:07:42 13:11:51 89° 307° (NW) 13:16:04 435.950
ITAMSAT 1 22 Dec 13:09:34 13:14:45 87° 255° (WSW) 13:19:58 435.822/435.867
Gurwin Techsat 1B 22 Dec 13:16:46 13:22:02 70° 72° (ENE) 13:27:20 435.225
HORYU 2 22 Dec 13:18:23 13:22:14 29° 65° (ENE) 13:26:07 437.375
TISAT 1 22 Dec 13:20:43 13:23:58 22° 297° (WNW) 13:27:12 437.305
SWISSCUBE 22 Dec 13:26:55 13:31:43 79° 104° (ESE) 13:36:28 437.505
ITUPSAT 1 22 Dec 13:28:16 13:33:04 75° 103° (ESE) 13:37:49 437.325
SPROUT 22 Dec 13:31:07 13:34:10 19° 298° (WNW) 13:37:12 437.525
AUBIESAT-1 22 Dec 13:34:59 13:38:36 26° 98° (E) 13:41:56 437.475
BEESAT 22 Dec 13:51:33 13:56:18 67° 288° (WNW) 14:01:01 436.000
ISS 22 Dec 13:55:50 13:59:09 88° 340° (NNW) 14:02:27 145.825
M-CUBED/EXP-1 PRIME 22 Dec 14:01:49 14:06:08 53° 105° (ESE) 14:10:03 437.505
GONETS M04 22 Dec 14:04:04 14:09:59 19° 53° (NE) 14:15:49
BEESAT 3 22 Dec 14:04:42 14:08:22 30° 320° (NW) 14:12:05 437.485
STARS 22 Dec 14:12:39 14:16:41 33° 97° (E) 14:20:42 437.465
KKS-1 22 Dec 14:20:45 14:25:11 58° 101° (E) 14:29:36 437.445
JAS-2 22 Dec 14:22:14 14:27:55 25° 58° (ENE) 14:33:10 435.910
AIST 2 22 Dec 14:23:22 14:27:25 41° 316° (NW) 14:31:32 435.215
PCSat 22 Dec 14:37:18 14:42:18 37° 316° (NW) 14:47:20 145.827
AO-7 22 Dec 14:39:25 14:47:43 79° 67° (ENE) 14:56:07 29.400- 29.500
BEESAT 2 22 Dec 14:47:44 14:50:42 18° 328° (NNW) 14:53:41 435.950
ITAMSAT 1 22 Dec 14:52:44 14:55:01 13° 273° (W) 14:57:17 435.822/435.867
HORYU 2 22 Dec 14:54:43 14:58:48 35° 263° (W) 15:02:57 437.375
Gurwin Techsat 1B 22 Dec 14:58:55 15:02:32 18° 270° (W) 15:06:11 435.225
SWISSCUBE 22 Dec 15:06:09 15:08:59 16° 303° (WNW) 15:11:49 437.505
ITUPSAT 1 22 Dec 15:07:24 15:10:24 17° 302° (WNW) 15:13:24 437.325
AUBIESAT-1 22 Dec 15:09:38 15:13:40 36° 299° (WNW) 15:17:21 437.475
RS-15 22 Dec 15:16:55 15:26:35 34° 350° (N) 15:36:31 29.354- 29.394
CUTE-I 22 Dec 15:18:18 15:20:30 13° 52° (NE) 15:22:42 437.470
BEESAT 22 Dec 15:32:08 15:33:15 11° 307° (NW) 15:34:23 436.000
ISS 22 Dec 15:32:48 15:35:58 41° 356° (N) 15:39:07 145.825
AIST 1 22 Dec 15:35:33 15:39:41 44° 93° (E) 15:43:50
M-CUBED/EXP-1 PRIME 22 Dec 15:37:29 15:40:44 20° 306° (NW) 15:43:47 437.505
MOZHAYETS 4 22 Dec 15:46:22 15:49:37 19° 90° (E) 15:52:50
STARS 22 Dec 15:49:14 15:53:06 30° 295° (WNW) 15:56:56 437.465
KKS-1 22 Dec 15:58:19 16:01:26 19° 299° (WNW) 16:04:33 437.445
GONETS M04 22 Dec 15:59:48 16:08:37 74° 78° (ENE) 16:17:18
JAS-2 22 Dec 16:04:52 16:12:25 80° 256° (WSW) 16:19:13 435.910
AIST 2 22 Dec 16:05:22 16:07:11 12° 338° (NNW) 16:09:01 435.215
Cubesat XI-IV 22 Dec 16:22:13 16:27:07 39° 66° (ENE) 16:32:01 437.490
PCSat 22 Dec 16:24:53 16:27:21 13° 340° (NNW) 16:29:50 145.827
AO-7 22 Dec 16:34:37 16:41:21 27° 268° (W) 16:48:09 29.400- 29.500
CUTE-I 22 Dec 16:54:21 16:59:38 69° 72° (ENE) 17:04:55 437.470
MaSat-1 22 Dec 17:09:35 17:11:55 69° 243° (WSW) 17:14:24 437.345
ISS 22 Dec 17:09:37 17:12:53 58° 16° (NNE) 17:16:08 145.825
AIST 1 22 Dec 17:14:17 17:17:35 21° 292° (WNW) 17:20:52
CUBESAT XI-V 22 Dec 17:16:48 17:18:42 12° 87° (E) 17:20:36 437.345
PRISM 22 Dec 17:17:31 17:20:43 21° 93° (E) 17:23:53 437.425
MOZHAYETS 4 22 Dec 17:22:39 17:27:12 55° 289° (WNW) 17:31:41
RS-15 22 Dec 17:32:23 17:42:40 40° 24° (NNE) 17:53:18 29.354- 29.394
HO-68 22 Dec 17:41:52 17:46:39 20° 48° (NE) 17:51:26 435.675
JAS-2 22 Dec 17:53:44 17:58:16 17° 273° (W) 18:02:35 435.910
GONETS M04 22 Dec 17:57:37 18:04:36 28° 280° (W) 18:11:33
DANDE 22 Dec 17:59:48 18:05:14 21° 58° (ENE) 18:11:11 436.750
Cubesat XI-IV 22 Dec 18:02:27 18:07:15 34° 264° (W) 18:12:05 437.490
STRAND 1 22 Dec 18:20:11 18:25:00 41° 98° (E) 18:29:48 437.568
CUTE-I 22 Dec 18:36:32 18:40:13 19° 270° (W) 18:43:54 437.470
CUSAT 1 22 Dec 18:39:04 18:46:06 38° 67° (ENE) 18:53:50 437.405
ISS 22 Dec 18:46:20 18:49:23 35° 215° (SW) 18:52:24 145.825
AAUSAT CUBESAT 2 22 Dec 18:49:59 18:52:33 16° 61° (ENE) 18:55:08 437.432
CUBESAT XI-V 22 Dec 18:52:08 18:56:46 83° 285° (WNW) 19:01:22 437.345
PRISM 22 Dec 18:52:31 18:56:25 40° 291° (WNW) 19:00:17 437.425
UKube-1 22 Dec 19:04:08 19:04:21 10° 54° (NE) 19:04:35 .
BEESAT 3 22 Dec 19:05:13 19:08:01 17° 31° (NNE) 19:10:48 437.485
CANX-2 22 Dec 19:10:28 19:14:26 38° 69° (ENE) 19:18:26 2200.000
BRITE-PL 22 Dec 19:22:45 19:26:45 50° 71° (ENE) 19:30:48 437.365/2234.400
COMPASS 1 22 Dec 19:25:28 19:29:22 37° 69° (ENE) 19:33:18 437.405
AIST 2 22 Dec 19:25:49 19:28:20 15° 27° (NNE) 19:30:50 435.215
HO-68 22 Dec 19:26:07 19:33:16 76° 69° (ENE) 19:40:27 435.675
CUBEBUG 2 22 Dec 19:28:16 19:30:28 14° 58° (ENE) 19:32:43 437.445
DELFI C3 22 Dec 19:28:49 19:31:29 17° 62° (ENE) 19:34:10 145.870
ZACube-1 22 Dec 19:29:45 19:30:46 11° 56° (NE) 19:31:48 437.345
SEEDS 22 Dec 19:34:03 19:38:12 53° 72° (ENE) 19:42:23 437.485
GOMX 1 22 Dec 19:37:08 19:41:09 50° 71° (ENE) 19:45:16 467.674
CUTE 1.7 + AOD 2 22 Dec 19:40:36 19:44:51 71° 74° (ENE) 19:49:10 437.475
DANDE 22 Dec 19:42:07 19:49:47 75° 77° (ENE) 19:58:29 436.750
RS-15 22 Dec 19:45:23 19:56:39 88° 53° (NE) 20:08:26 29.354- 29.394
BEESAT 2 22 Dec 19:46:57 19:50:36 27° 39° (NE) 19:54:13 435.950
DOVE 4 22 Dec 19:51:17 19:55:19 53° 71° (ENE) 19:59:30 437.250
FUNcube-1 22 Dec 19:53:37 19:56:28 18° 61° (ENE) 19:59:22 145.935
PCSat 22 Dec 19:55:05 19:59:06 20° 33° (NNE) 20:03:05 145.827
CINEMA 3 22 Dec 19:58:56 20:02:50 39° 69° (ENE) 20:06:53 145.822/145.860
STRAND 1 22 Dec 19:59:39 20:04:04 31° 296° (WNW) 20:08:28 437.568
UWE-3 22 Dec 19:59:57 20:03:19 23° 64° (ENE) 20:06:45 435.000/436.395/437.385
DX 1 22 Dec 20:07:22 20:11:24 39° 68° (ENE) 20:15:27 434.975-435.025
HUMSAT D 22 Dec 20:10:09 20:12:42 16° 60° (ENE) 20:15:16 437.325/437.525
AISAT 22 Dec 20:21:49 20:25:10 22° 62° (ENE) 20:28:31 437.250
CUSAT 1 22 Dec 20:21:55 20:29:32 62° 265° (W) 20:37:53 437.405
AAUSAT CUBESAT 2 22 Dec 20:23:35 20:27:45 63° 259° (W) 20:31:59 437.432
SO-50 22 Dec 20:23:55 20:28:23 60° 123° (ESE) 20:33:03 436.795
Oscar 11 22 Dec 20:25:15 20:29:34 72° 74° (ENE) 20:33:56 145.826/435.025
CUBESAT XI-V 22 Dec 20:31:40 20:33:28 12° 304° (NW) 20:35:16 437.345
UKube-1 22 Dec 20:35:24 20:39:43 72° 73° (ENE) 20:44:03 .
BEESAT 3 22 Dec 20:42:40 20:46:52 79° 52° (NE) 20:51:01 437.485
CANX-2 22 Dec 20:47:03 20:50:30 24° 267° (W) 20:53:59 2200.000
COMPASS 1 22 Dec 21:01:46 21:05:12 24° 267° (W) 21:08:40 437.405
ZACube-1 22 Dec 21:02:10 21:06:22 81° 75° (ENE) 21:10:43 437.345
DELFI C3 22 Dec 21:02:19 21:06:21 55° 260° (W) 21:10:27 145.870
CUBEBUG 2 22 Dec 21:02:22 21:06:35 75° 257° (WSW) 21:10:57 437.445
50 SAT 22 Dec 21:02:32 21:06:18 39° 69° (ENE) 21:10:07 437.505
BRITE-PL 22 Dec 21:03:02 21:05:39 16° 270° (W) 21:08:18 437.365/2234.400
AIST 2 22 Dec 21:03:34 21:07:51 58° 48° (NE) 21:12:04 435.215
TIGRISAT 22 Dec 21:09:06 21:10:42 12° 86° (E) 21:12:18 435.000
SEEDS 22 Dec 21:11:32 21:14:21 17° 270° (W) 21:17:12 437.485
VELOX 1 22 Dec 21:12:24 21:16:45 62° 72° (ENE) 21:21:07 145.980
HO-68 22 Dec 21:16:03 21:21:40 24° 269° (W) 21:27:20 435.675
GOMX 1 22 Dec 21:17:02 21:19:40 16° 270° (W) 21:22:21 467.674
YUBILEINY 22 Dec 21:19:01 21:22:52 14° 70° (ENE) 21:26:43 435.215
CUTE 1.7 + AOD 2 22 Dec 21:19:18 21:21:18 13° 272° (W) 21:23:18 437.475
ESTCUBE 1 22 Dec 21:24:14 21:28:22 36° 67° (ENE) 21:32:30 437.505/2401.250
BEESAT 2 22 Dec 21:25:00 21:29:03 47° 239° (WSW) 21:33:02 435.950
DANDE 22 Dec 21:26:21 21:32:50 30° 274° (W) 21:39:55 436.750
FUNcube-1 22 Dec 21:28:17 21:32:25 55° 260° (W) 21:36:40 145.935
DOVE 4 22 Dec 21:30:56 21:33:31 16° 271° (W) 21:36:09 437.250
POLYITAN 1 22 Dec 21:33:52 21:35:36 12° 88° (E) 21:37:20 437.675
NANOSAT C BR1 22 Dec 21:33:57 21:35:33 12° 88° (E) 21:37:08 145.865
UWE-3 22 Dec 21:35:42 21:39:39 39° 263° (W) 21:43:45 435.000/436.395/437.385
CINEMA 3 22 Dec 21:36:57 21:40:15 22° 268° (W) 21:43:38 145.822/145.860
UNISAT 6 22 Dec 21:37:56 21:41:39 23° 92° (E) 21:45:21 437.425
PCSat 22 Dec 21:37:57 21:43:25 78° 55° (NE) 21:48:50 145.827
HUMSAT D 22 Dec 21:43:55 21:48:02 62° 259° (W) 21:52:14 437.325/437.525
DX 1 22 Dec 21:44:16 21:47:46 24° 266° (W) 21:51:18 434.975-435.025
QB50P1 22 Dec 21:47:50 21:50:37 17° 91° (E) 21:53:23 145.935-145.965
CUBEBUG 1 22 Dec 21:53:51 21:58:09 64° 73° (ENE) 22:02:28 437.445
AISAT 22 Dec 21:57:15 22:01:30 47° 260° (W) 22:05:47 437.250
RS-15 22 Dec 21:58:39 22:07:47 30° 256° (WSW) 22:17:15 29.354- 29.394
Oscar 11 22 Dec 22:04:11 22:06:16 13° 272° (W) 22:08:21 145.826/435.025
SO-50 22 Dec 22:05:19 22:09:18 28° 324° (NW) 22:13:24 436.795
CUSAT 1 22 Dec 22:07:29 22:11:24 15° 283° (WNW) 22:15:28 437.405
ANTELSAT 22 Dec 22:09:35 22:14:07 44° 98° (E) 22:18:38 437.575/2403.000
UKube-1 22 Dec 22:14:21 22:16:23 13° 271° (W) 22:18:26 .
POPSAT HIP 1 22 Dec 22:16:06 22:19:56 31° 96° (E) 22:23:46 437.405
BEESAT 3 22 Dec 22:22:25 22:24:27 13° 250° (WSW) 22:26:29 437.485
BUGSAT 1 22 Dec 22:29:32 22:33:15 33° 97° (E) 22:36:58 437.445
50 SAT 22 Dec 22:38:38 22:41:41 21° 267° (W) 22:44:46 437.505
TISAT 1 22 Dec 22:40:12 22:44:16 51° 71° (ENE) 22:48:21 437.305
ZACube-1 22 Dec 22:42:09 22:43:23 11° 274° (W) 22:44:38 437.345
DUCHIFAT 1 22 Dec 22:42:33 22:46:46 58° 101° (E) 22:50:58 145.980
AIST 2 22 Dec 22:43:00 22:46:05 20° 247° (WSW) 22:49:08 435.215
TIGRISAT 22 Dec 22:43:23 22:48:07 88° 104° (ESE) 22:52:51 435.000
VELOX 1 22 Dec 22:51:05 22:53:45 16° 270° (W) 22:56:26 145.980
SPROUT 22 Dec 22:51:44 22:55:57 62° 73° (ENE) 23:00:12 437.525
AUBIESAT-1 22 Dec 22:54:43 22:56:39 12° 49° (NE) 22:58:35 437.475
QB50P2 22 Dec 22:57:59 23:02:17 86° 104° (ESE) 23:06:35 145.880/145.840
SWISSCUBE 22 Dec 23:00:58 23:04:22 20° 60° (ENE) 23:07:46 437.505
ESTCUBE 1 22 Dec 23:01:23 23:05:17 28° 265° (W) 23:09:12 437.505/2401.250
ITUPSAT 1 22 Dec 23:02:38 23:05:56 19° 59° (ENE) 23:09:15 437.325
NANOSAT C BR1 22 Dec 23:07:41 23:11:58 77° 286° (WNW) 23:16:13 145.865
POLYITAN 1 22 Dec 23:07:46 23:12:04 76° 286° (WNW) 23:16:22 437.675
YUBILEINY 22 Dec 23:09:15 23:17:50 65° 92° (E) 23:26:24 435.215
O/OREOS (USA 219) 22 Dec 23:10:39 23:14:03 22° 103° (ESE) 23:17:28 437.305
UNISAT 6 22 Dec 23:14:07 23:18:40 48° 290° (WNW) 23:23:12 437.425
M-CUBED/EXP-1 PRIME 22 Dec 23:20:16 23:23:52 21° 55° (NE) 23:27:27 437.505
PCSat 22 Dec 23:22:32 23:26:12 19° 254° (WSW) 23:29:51 145.827
QB50P1 22 Dec 23:22:40 23:26:50 54° 288° (WNW) 23:31:00 145.935-145.965
BEESAT 22 Dec 23:24:35 23:28:39 28° 64° (ENE) 23:32:44 436.000
CUBEBUG 1 22 Dec 23:32:29 23:34:58 15° 270° (W) 23:37:26 437.445
ANTELSAT 22 Dec 23:46:49 23:50:41 26° 296° (WNW) 23:54:34 437.575/2403.000
KKS-1 22 Dec 23:49:25 23:50:51 11° 55° (NE) 23:52:16 437.445
SO-50 22 Dec 23:49:41 23:51:27 12° 348° (NNW) 23:53:14 436.795
POPSAT HIP 1 22 Dec 23:52:06 23:55:47 29° 294° (WNW) 23:59:28 437.405
BUGSAT 1 23 Dec 00:05:18 00:08:38 25° 295° (WNW) 00:11:58 437.445
TISAT 1 23 Dec 00:17:36 00:20:24 17° 269° (W) 00:23:12 437.305
DUCHIFAT 1 23 Dec 00:19:26 00:22:13 17° 299° (WNW) 00:24:59 145.980
TIGRISAT 23 Dec 00:21:45 00:24:12 14° 303° (WNW) 00:26:40 435.000
AUBIESAT-1 23 Dec 00:25:55 00:30:44 64° 67° (ENE) 00:35:33 437.475
SPROUT 23 Dec 00:30:03 00:32:28 15° 271° (W) 00:34:53 437.525
QB50P2 23 Dec 00:35:45 00:37:35 13° 302° (WNW) 00:39:24 145.880/145.840
SWISSCUBE 23 Dec 00:37:02 00:41:48 63° 258° (WSW) 00:46:34 437.505
ITUPSAT 1 23 Dec 00:38:35 00:43:21 66° 258° (WSW) 00:48:10 437.325
NANOSAT C BR1 23 Dec 00:46:26 00:47:05 10° 304° (NW) 00:47:44 145.865
POLYITAN 1 23 Dec 00:46:35 00:47:15 10° 304° (NW) 00:47:56 437.675
O/OREOS (USA 219) 23 Dec 00:48:52 00:53:10 46° 301° (WNW) 00:57:29 437.305
M-CUBED/EXP-1 PRIME 23 Dec 00:53:31 00:58:23 69° 253° (WSW) 01:03:17 437.505
Oscar 19 23 Dec 00:57:27 01:02:23 41° 98° (E) 01:07:16 437.125/150
BEESAT 23 Dec 01:01:52 01:06:21 40° 262° (W) 01:10:53 436.000
YUBILEINY 23 Dec 01:07:32 01:15:15 34° 295° (WNW) 01:22:59 435.215
STARS 23 Dec 01:13:06 01:17:16 45° 69° (ENE) 01:21:28 437.465
ITAMSAT 1 23 Dec 01:19:28 01:23:45 26° 93° (E) 01:28:00 435.822/435.867
KKS-1 23 Dec 01:22:19 01:26:44 80° 74° (ENE) 01:31:12 437.445
Gurwin Techsat 1B 23 Dec 01:30:14 01:34:15 21° 91° (E) 01:38:14 435.225
SO-50 23 Dec 01:32:12 01:34:09 12° 13° (NNE) 01:36:07 436.795
AIST 1 23 Dec 01:40:06 01:42:53 17° 66° (ENE) 01:45:39
VERMONT LUNAR 23 Dec 02:01:08 02:03:11 15° 160° (SSE) 02:05:14 437.305
AUBIESAT-1 23 Dec 02:02:33 02:06:01 19° 264° (W) 02:09:31 437.475
PHONESAT 2.4 23 Dec 02:27:59 02:30:11 15° 160° (SSE) 02:32:24 2401.200-2431.200
Oscar 19 23 Dec 02:37:03 02:41:36 31° 296° (WNW) 02:46:08 437.125/150
AO-7 23 Dec 02:38:22 02:44:13 20° 88° (E) 02:50:00 29.400- 29.500
HORYU 2 23 Dec 02:42:33 02:46:43 35° 97° (E) 02:50:51 437.375
STARS 23 Dec 02:50:39 02:53:58 21° 267° (W) 02:57:20 437.465
MOZHAYETS 4 23 Dec 02:51:36 02:55:29 27° 65° (ENE) 02:59:23
ITAMSAT 1 23 Dec 02:58:30 03:03:29 49° 292° (WNW) 03:08:26 435.822/435.867
KKS-1 23 Dec 03:02:13 03:03:58 12° 272° (W) 03:05:44 437.445
Gurwin Techsat 1B 23 Dec 03:09:23 03:14:38 60° 289° (WNW) 03:19:50 435.225
SO-50 23 Dec 03:12:01 03:16:16 29° 37° (NE) 03:20:33 436.795
GONETS M04 23 Dec 03:12:49 03:17:57 17° 73° (ENE) 03:23:04
AIST 1 23 Dec 03:16:44 03:20:55 54° 265° (W) 03:25:03
VERMONT LUNAR 23 Dec 03:37:53 03:40:49 24° 176° (S) 03:43:45 437.305
STRAND 1 23 Dec 04:03:26 04:06:06 14° 55° (NE) 04:08:46 437.568
PHONESAT 2.4 23 Dec 04:05:10 04:08:12 25° 177° (S) 04:11:15 2401.200-2431.200
PRISM 23 Dec 04:11:30 04:15:03 27° 65° (ENE) 04:18:36 437.425
HORYU 2 23 Dec 04:19:23 04:23:17 29° 295° (WNW) 04:27:10 437.375
CUBESAT XI-V 23 Dec 04:23:12 04:26:31 20° 61° (ENE) 04:29:50 437.345
MOZHAYETS 4 23 Dec 04:28:10 04:32:32 40° 263° (W) 04:36:57
AO-7 23 Dec 04:29:46 04:38:12 85° 109° (ESE) 04:46:35 29.400- 29.500
Cubesat XI-IV 23 Dec 04:38:33 04:39:47 11° 85° (E) 04:41:01 437.490
Gurwin Techsat 1B 23 Dec 04:52:03 04:53:33 11° 309° (NW) 04:55:02 435.225
